EW6864 Weather Reports


time (UTC)temp
C
wind
direction
speed
KPH
gust
KPH
rain 1hr
cm
rain 24hr
cm
rain mn
cm
humidity
%
barometer
mb
20260505124542 11 90 12.9 24.1 0.00 0.00 0.00 53 1007.7
20260505123642 11 90 17.7 37.0 0.00 0.00 0.00 52 1007.9
20260505122742 11 90 12.9 27.4 0.00 0.00 0.00 53 1007.7
20260505121842 11 98 6.4 12.9 0.00 0.00 0.00 59 1007.7
20260505120042 11 101 8.0 16.1 0.00 0.00 0.00 58 1007.5
20260505115142 12 98 11.3 19.3 0.00 0.00 0.00 53 1007.5
20260505114242 12 94 12.9 19.3 0.00 0.00 0.00 52 1007.5
20260505113342 12 89 12.9 24.1 0.00 0.00 0.00 51 1007.3
20260505111542 12 98 19.3 27.4 0.00 0.00 0.00 54 1007.1
20260505110642 12 98 19.3 29.0 0.00 0.00 0.00 55 1006.8
20260505102142 13 88 17.7 30.6 0.00 0.00 0.00 52 1006.2
20260505101242 13 95 19.3 30.6 0.00 0.00 0.00 52 1006.0
20260505100342 13 96 16.1 24.1 0.00 0.00 0.00 53 1005.9
20260505095442 13 94 16.1 27.4 0.00 0.00 0.00 52 1005.9
20260505093642 13 97 19.3 29.0 0.00 0.00 0.00 52 1005.9
20260505092742 12 95 12.9 29.0 0.00 0.00 0.00 55 1005.8
20260505091842 11 87 4.8 12.9 0.00 0.00 0.00 60 1005.9
20260505090942 12 85 4.8 9.7 0.00 0.00 0.00 59 1005.9
20260505090042 13 97 11.3 20.9 0.00 0.00 0.00 57 1005.8
20260505085142 13 96 12.9 19.3 0.00 0.00 0.00 55 1005.6
20260505084242 13 93 11.3 22.5 0.00 0.00 0.00 55 1005.6
20260505083342 11 73 1.6 12.9 0.00 0.00 0.00 59 1005.7
20260505081542 13 81 1.6 6.4 0.00 0.00 0.00 53 1005.5
20260505080642 14 95 4.8 11.3 0.00 0.00 0.00 53 1005.6
20260505075742 13 76 3.2 6.4 0.00 0.00 0.00 53 1005.5
20260505074842 12 70 3.2 6.4 0.00 0.00 0.00 54 1005.3
20260505073942 12 65 3.2 6.4 0.00 0.00 0.00 54 1005.1
20260505073042 12 87 1.6 9.7 0.00 0.00 0.00 53 1005.1
20260505072142 13 78 4.8 6.4 0.00 0.00 0.00 51 1005.2
20260505071242 13 75 3.2 8.0 0.00 0.00 0.00 52 1005.1
20260505070342 13 113 1.6 4.8 0.00 0.00 0.00 53 1004.9
20260505065442 13 149 1.6 6.4 0.00 0.00 0.00 56 1004.7
20260505064542 13 90 1.6 4.8 0.00 0.00 0.00 54 1004.8
20260505063642 13 92 4.8 11.3 0.00 0.00 0.00 54 1004.8
20260505062742 12 68 6.4 9.7 0.00 0.00 0.00 52 1004.7
20260505060942 12 62 9.7 19.3 0.00 0.00 0.00 53 1004.3
20260505060042 12 82 1.6 3.2 0.00 0.00 0.00 52 1004.1
20260505055142 13 85 1.6 3.2 0.00 0.00 0.00 50 1004.0
20260505054242 13 95 1.6 3.2 0.00 0.00 0.00 50 1003.9
20260505053342 13 87 1.6 4.8 0.00 0.00 0.00 47 1003.9
20260505051549 14 312 0.0 3.2 0.00 0.00 0.00 46 1003.6
20260505050642 15 311 4.8 4.8 0.00 0.00 0.00 46 1003.5
20260505041242 16 299 6.4 8.0 0.00 0.00 0.00 40 1003.5
20260505034542 17 318 4.8 8.0 0.00 0.00 0.00 38 1003.6
20260505033642 17 331 4.8 8.0 0.00 0.00 0.00 40 1003.7
20260505032742 16 337 4.8 6.4 0.00 0.00 0.00 43 1003.3
20260505031842 17 343 6.4 8.0 0.00 0.00 0.00 43 1003.6
20260505030042 18 310 4.8 4.8 0.00 0.00 0.00 38 1003.4
20260505025142 18 303 4.8 6.4 0.00 0.00 0.00 41 1003.1
20260505023342 18 295 4.8 8.0 0.00 0.00 0.00 44 1003.1
20260505022443 19 295 4.8 6.4 0.00 0.00 0.00 44 1003.2
20260505021542 20 293 4.8 8.0 0.00 0.00 0.00 42 1003.1
20260505020642 20 291 4.8 6.4 0.00 0.00 0.00 43 1003.2
20260505015742 21 285 4.8 9.7 0.00 0.00 0.00 41 1003.3
20260505014842 21 288 6.4 9.7 0.00 0.00 0.00 38 1003.2
20260505013942 22 285 9.7 14.5 0.00 0.00 0.00 38 1003.1
20260505013042 22 286 9.7 16.1 0.00 0.00 0.00 36 1003.1
20260505012142 23 284 11.3 17.7 0.00 0.00 0.00 35 1003.1
20260505011242 23 284 11.3 16.1 0.00 0.00 0.00 35 1003.2
20260505010342 23 285 12.9 17.7 0.00 0.00 0.00 33 1003.1
20260505003642 25 282 11.3 16.1 0.00 0.00 0.00 28 1003.3
20260505002742 25 286 12.9 19.3 0.00 0.00 0.00 30 1003.2
20260505001842 25 288 14.5 20.9 0.00 0.00 0.00 29 1003.4
20260505000942 25 285 12.9 17.7 0.00 0.00 0.00 29 1003.3
20260505000042 25 289 12.9 20.9 0.00 0.00 0.00 27 1003.4
20260504235142 25 288 14.5 24.1 0.00 0.00 0.00 28 1003.3
20260504233342 25 288 12.9 20.9 0.00 0.00 0.00 26 1003.4
20260504232442 25 286 12.9 20.9 0.00 0.00 0.00 24 1003.5
20260504231542 25 289 11.3 22.5 0.00 0.00 0.00 26 1003.3
20260504230642 25 286 11.3 19.3 0.00 0.00 0.00 27 1003.3
20260504225742 25 289 14.5 24.1 0.00 0.00 0.00 27 1003.5
20260504223042 25 283 9.7 19.3 0.00 0.00 0.00 26 1003.9
20260504222142 25 282 11.3 20.9 0.00 0.00 0.00 29 1004.2
20260504221242 25 274 12.9 20.9 0.00 0.00 0.00 26 1004.4
20260504220342 25 281 9.7 17.7 0.00 0.00 0.00 30 1004.4
20260504215442 25 282 11.3 19.3 0.00 0.00 0.00 30 1004.5
20260504214542 25 281 9.7 17.7 0.00 0.00 0.00 30 1004.7
20260504213642 25 281 9.7 19.3 0.00 0.00 0.00 30 1004.8
20260504211842 25 275 11.3 19.3 0.00 0.00 0.00 34 1005.2
20260504210942 25 278 8.0 19.3 0.00 0.00 0.00 32 1005.3
20260504210042 25 279 9.7 19.3 0.00 0.00 0.00 30 1005.5
20260504205142 24 281 11.3 17.7 0.00 0.00 0.00 33 1005.5
20260504204242 23 279 8.0 14.5 0.00 0.00 0.00 34 1005.7
20260504203342 23 283 11.3 16.1 0.00 0.00 0.00 37 1005.8
20260504202442 23 275 11.3 19.3 0.00 0.00 0.00 36 1005.9
20260504200642 23 292 9.7 17.7 0.00 0.00 0.00 38 1006.0
20260504195745 23 284 9.7 19.3 0.00 0.00 0.00 41 1006.1
20260504194842 22 288 6.4 16.1 0.00 0.00 0.00 41 1006.2
20260504193042 22 270 6.4 20.9 0.00 0.00 0.00 41 1006.3
20260504192142 22 274 8.0 16.1 0.00 0.00 0.00 41 1006.4
20260504191242 22 254 4.8 11.3 0.00 0.00 0.00 40 1006.6
20260504190342 22 270 8.0 16.1 0.00 0.00 0.00 39 1006.8
20260504184542 21 265 6.4 16.1 0.00 0.00 0.00 40 1006.8
20260504183642 21 237 6.4 12.9 0.00 0.00 0.00 42 1006.8
20260504182742 21 241 9.7 17.7 0.00 0.00 0.00 43 1007.0
20260504181842 21 236 9.7 20.9 0.00 0.00 0.00 41 1007.1
20260504180942 21 234 8.0 17.7 0.00 0.00 0.00 46 1007.2
20260504180042 20 247 8.0 14.5 0.00 0.00 0.00 45 1007.4
20260504175142 20 263 8.0 14.5 0.00 0.00 0.00 44 1007.4
20260504173341 19 245 9.7 17.7 0.00 0.00 0.00 45 1007.7
20260504172441 19 242 9.7 16.1 0.00 0.00 0.00 48 1007.8
20260504171541 18 251 9.7 16.1 0.00 0.00 0.00 47 1007.8
20260504170641 18 254 8.0 16.1 0.00 0.00 0.00 48 1007.9
20260504160342 16 244 11.3 17.7 0.00 0.00 0.00 51 1007.7
20260504150942 15 205 1.6 6.4 0.00 0.00 0.00 55 1008.0
20260504140642 11 105 1.6 3.2 0.00 0.00 0.00 62 1008.1